Weather History for Wichita, KS

Change the Weather History Date:

Tuesday, February 21, 2012

  Actual Average Record
Temperature  
Mean Temperature 42 °F 39 °F  
Max Temperature 56 °F 50 °F 79 °F (1935)
Min Temperature 28 °F 28 °F -3 °F (1939)
Degree Days  
Heating Degree Days 23 26  
Month to date heating degree days 565 606  
Since 1 July heating degree days 3081 3466  
Cooling Degree Days 0 0  
Month to date cooling degree days 0 0  
Year to date cooling degree days 0 0  
Moisture  
Dew Point 26 °F    
Average Humidity 54    
Maximum Humidity 78    
Minimum Humidity 30    
Precipitation  
Precipitation 0.00 in 0.05 in 0.98 in (1971)
Month to date precipitation 3.40 0.85  
Year to date precipitation 3.43 1.68  
Snow  
Snow 0.00 in 0.00 in 11.60 in (1971)
Month to date snowfall 2.2 2.6  
Since 1 July snowfall 2.6 11.8  
Snow Depth 0.00 in    
Sea Level Pressure  
Sea Level Pressure 29.94 in    
Wind  
Wind Speed 8 mph (SW)    
Max Wind Speed 23 mph    
Max Gust Speed 30 mph    
Visibility 10 miles    
Events      
T = Trace of Precipitation, MM = Missing Value Source: NWS Daily Summary

Daily Weather History Graph

Daily Weather History Graph

Search for Another Location

Airport:

Trip Planner

Search our weather history database for the weather conditions in past years. The results will help you decide how hot, cold, wet, or windy it might be!

Date:

Astronomy

Feb. 21, 2012 Rise Set
Actual Time 7:12 AM CST 6:14 PM CST
Civil Twilight 6:45 AM CST 6:41 PM CST
Nautical Twilight 6:15 AM CST 7:11 PM CST
Astronomical Twilight 5:45 AM CST 7:42 PM CST
Moon 6:42 AM CST (2/21) 6:21 PM CST (2/21)
Length of Visible Light 11h 55m
Length of Day
11h 02m
Waning Crescent, 0% of the Moon is Illuminated
Feb 21
Waning Crescent
Feb 21
New
Feb 29
First Quarter
Mar 8
Full
Mar 14
Last Quarter

Hourly Weather History & Observations

Time (CST) Temp. Windchill Dew Point Humidity Pressure Visibility Wind Dir Wind Speed Gust Speed Precip Events Conditions
12:53 AM 39.9 °F 31.1 °F 28.0 °F 63% 29.92 in 10.0 mi WNW 17.3 mph - N/A   Partly Cloudy
1:53 AM 39.0 °F 30.3 °F 27.0 °F 62% 29.96 in 10.0 mi WNW 16.1 mph - N/A   Clear
2:53 AM 37.0 °F 29.3 °F 27.0 °F 67% 29.96 in 10.0 mi WNW 11.5 mph - N/A   Clear
3:53 AM 36.0 °F 27.5 °F 26.1 °F 67% 29.98 in 10.0 mi WNW 12.7 mph - N/A   Partly Cloudy
4:53 AM 33.1 °F 26.1 °F 25.0 °F 72% 29.99 in 10.0 mi West 8.1 mph - N/A   Scattered Clouds
5:53 AM 32.0 °F 24.2 °F 25.0 °F 75% 30.00 in 10.0 mi West 9.2 mph - N/A   Scattered Clouds
6:53 AM 28.9 °F 22.8 °F 23.0 °F 78% 30.01 in 10.0 mi West 5.8 mph - N/A   Scattered Clouds
7:53 AM 30.0 °F - 24.1 °F 79% 30.01 in 10.0 mi Calm Calm - N/A   Mostly Cloudy
8:53 AM 35.1 °F 30.1 °F 26.1 °F 70% 30.04 in 10.0 mi WSW 5.8 mph - N/A   Mostly Cloudy
9:53 AM 39.9 °F 36.7 °F 26.1 °F 58% 30.04 in 10.0 mi WSW 4.6 mph - N/A   Mostly Cloudy
10:53 AM 46.0 °F 41.9 °F 28.0 °F 50% 30.03 in 10.0 mi WSW 8.1 mph - N/A   Mostly Cloudy
11:53 AM 46.9 °F - 28.0 °F 48% 30.02 in 10.0 mi SSW 9.2 mph - N/A   Mostly Cloudy
12:53 PM 53.1 °F - 25.0 °F 34% 29.97 in 10.0 mi WSW 9.2 mph - N/A   Mostly Cloudy
1:53 PM 55.0 °F - 24.1 °F 30% 29.93 in 10.0 mi SW 9.2 mph - N/A   Partly Cloudy
2:53 PM 55.9 °F - 25.0 °F 30% 29.89 in 10.0 mi SSW 11.5 mph - N/A   Clear
3:53 PM 55.4 °F - 24.8 °F 31% 29.88 in 10.0 mi SSW 13.8 mph - N/A   Partly Cloudy
4:53 PM 53.1 °F - 24.1 °F 32% 29.89 in 10.0 mi SSW 10.4 mph - N/A   Partly Cloudy
5:53 PM 48.9 °F - 28.0 °F 44% 29.89 in 10.0 mi South 8.1 mph - N/A   Scattered Clouds
6:53 PM 43.0 °F 40.3 °F 28.9 °F 58% 29.90 in 10.0 mi South 4.6 mph - N/A   Partly Cloudy
7:53 PM 42.1 °F 39.2 °F 28.9 °F 60% 29.90 in 10.0 mi SW 4.6 mph - N/A   Partly Cloudy
8:53 PM 37.0 °F - 28.9 °F 73% 29.89 in 10.0 mi Calm Calm - N/A   Clear
9:53 PM 35.1 °F 30.1 °F 28.0 °F 76% 29.85 in 10.0 mi South 5.8 mph - N/A   Clear
10:53 PM 36.0 °F 32.1 °F 28.0 °F 73% 29.82 in 10.0 mi South 4.6 mph - N/A   Partly Cloudy
11:53 PM 36.0 °F - 28.0 °F 73% 29.79 in 10.0 mi Calm Calm - N/A   Scattered Clouds